Theta_e
293 293 293 293 294 294 295 295 294 294 295 295 296 296 297 299 300 299 296 297 292 285 282 286 287 282 280 280 276 278 282 282 279 275 272 270 266 273 271 274 275 273 271 271 269 272 270 284 283 281 283 283 284 284
293 293 293 293 293 294 294 294 294 294 294 295 296 296 296 298 299 299 291 297 297 287 282 289 289 291 290 289 282 279 278 274 280 276 271 270 268 268 270 267 279 271 277 273 276 276 283 285 284 287 287 285 284 284
293 293 293 293 293 293 294 293 293 293 294 294 295 295 295 296 297 297 292 293 293 286 285 282 284 287 291 291 292 280 282 284 282 282 276 272 269 273 267 268 272 278 280 276 275 279 279 281 284 285 287 286 286 286
292 292 293 292 292 292 293 293 293 293 293 294 294 294 295 295 296 297 292 293 291 286 282 281 287 287 289 290 290 289 286 287 286 282 274 268 268 278 271 275 274 276 278 272 273 280 280 282 283 285 285 286 287 286
292 292 292 292 292 292 292 292 292 292 292 293 293 294 294 294 295 293 294 292 293 287 279 275 280 285 288 289 288 287 286 283 276 273 274 274 274 276 271 275 270 278 277 276 273 280 280 281 284 284 283 284 285 284
291 292 292 292 292 292 292 292 292 292 292 292 293 293 293 294 294 289 283 291 292 291 281 274 282 280 283 287 286 285 285 282 278 274 272 275 281 278 267 260 278 279 280 281 279 282 282 283 284 283 284 284 285 284
291 291 292 292 292 292 292 292 292 292 292 292 292 293 293 293 289 284 282 283 294 292 282 275 276 281 285 285 284 284 285 280 280 276 271 277 278 278 266 271 279 279 280 280 281 279 279 280 281 281 283 282 280 278
290 290 291 292 292 292 292 292 292 292 292 292 292 293 293 293 292 286 289 294 294 287 284 275 273 278 286 281 280 284 282 282 279 279 275 276 277 275 268 276 279 276 277 278 276 275 276 277 277 275 276 276 274 275
291 291 290 291 291 292 292 292 292 292 291 291 292 292 289 286 282 284 293 293 293 286 279 274 272 271 282 280 280 280 281 276 281 276 276 276 267 270 275 277 276 271 272 271 269 270 271 271 272 270 270 270 269 271
292 292 291 290 290 291 291 291 291 292 292 292 288 283 279 281 292 292 286 282 282 283 281 275 274 272 280 275 275 274 276 274 272 271 278 274 266 277 272 266 266 265 264 265 263 266 261 262 265 266 266 267 267 266
292 289 290 291 291 291 291 292 292 292 293 286 282 279 282 292 285 282 278 277 278 274 278 277 277 275 275 271 270 277 273 275 269 268 270 261 262 274 264 261 262 262 262 261 260 261 262 262 262 262 261 261 261 261
289 292 291 291 291 292 292 292 293 289 285 285 281 286 286 282 279 276 275 276 274 272 275 275 274 276 277 280 276 276 273 272 267 264 265 258 269 260 259 259 258 258 256 255 256 258 259 260 260 259 258 257 257 258
289 289 289 290 291 291 290 292 292 292 290 284 280 278 276 274 270 269 267 268 268 273 274 276 274 275 278 280 275 274 269 266 266 267 263 265 259 255 253 254 253 253 253 253 254 255 256 256 256 254 254 254 255 255
288 288 288 288 287 289 288 288 288 287 280 277 273 268 269 268 267 269 269 268 270 274 277 277 270 274 277 274 274 268 267 265 258 262 261 260 255 252 251 251 249 250 249 251 251 252 253 253 253 252 251 252 253 253
286 286 285 286 287 285 286 282 281 272 269 266 269 262 260 259 257 260 261 263 265 277 277 273 273 274 270 272 271 268 264 260 261 261 262 253 251 251 251 249 248 248 249 249 248 248 250 250 249 249 249 249 251 253
284 281 279 285 286 282 282 274 269 269 262 259 254 260 259 261 260 257 257 261 261 266 272 274 268 269 270 271 267 263 261 259 263 256 249 251 249 248 247 246 247 246 246 247 247 248 249 248 248 249 247 248 250 253
278 271 282 283 284 277 276 265 264 259 257 257 254 255 253 256 254 255 255 257 260 267 265 266 262 267 270 264 260 260 261 256 247 246 246 247 248 247 245 244 245 245 245 245 246 246 247 247 247 247 247 249 250 252
270 275 281 281 277 269 260 260 258 257 253 254 254 252 254 253 253 254 255 257 259 260 264 265 269 265 264 263 260 254 248 246 245 246 247 245 244 243 244 245 245 245 245 245 246 247 247 248 248 248 248 250 251 254
276 276 279 278 272 259 256 257 256 251 252 254 255 255 255 254 255 255 255 257 258 258 261 264 264 260 258 251 248 245 244 245 247 249 247 245 247 244 244 244 245 245 245 245 245 246 246 246 247 249 250 252 252 254
275 275 276 274 269 257 253 252 255 252 247 251 253 252 253 252 253 253 254 254 256 255 250 249 246 244 247 246 245 244 245 247 250 246 245 247 246 244 245 246 247 245 245 245 245 248 245 246 248 250 251 252 252 252
266 267 269 263 257 255 252 250 251 252 252 250 253 254 253 254 251 250 250 252 250 245 246 244 243 243 241 240 240 241 244 246 245 246 246 245 246 247 245 244 244 244 244 243 243 244 245 245 248 251 252 252 252 253
260 268 257 261 257 252 252 252 251 253 250 249 253 253 251 251 250 249 250 247 244 243 242 243 242 240 240 240 240 239 240 240 242 245 248 249 246 246 245 244 244 243 242 242 242 242 244 247 250 252 251 251 253 253
261 260 255 253 252 250 247 250 247 249 253 250 253 252 250 250 249 253 246 242 242 243 240 239 239 237 239 238 240 241 240 242 242 243 243 243 242 241 243 241 242 243 242 244 243 244 246 252 252 252 252 252 252 252
256 247 246 245 247 243 244 245 247 248 251 251 250 247 247 246 249 249 241 237 241 241 240 239 238 240 241 241 239 238 240 239 240 241 240 244 242 242 240 241 240 241 242 243 245 245 248 250 252 251 251 251 251 250
250 241 243 240 242 242 241 240 241 245 245 243 245 245 245 244 246 243 241 238 238 237 238 236 237 239 239 237 238 238 239 240 241 241 241 240 239 240 241 241 242 242 243 244 245 247 249 250 250 250 250 250 249 249
238 238 238 234 238 239 237 238 237 238 238 239 239 238 236 239 243 244 239 237 237 237 237 238 238 239 239 239 239 240 241 239 240 241 241 241 243 243 241 243 244 246 246 248 249 249 250 250 249 249 249 249 249 248
237 236 238 238 238 238 238 237 237 238 237 238 236 237 239 243 242 241 238 239 240 238 238 238 238 239 240 239 239 238 238 239 242 243 241 242 244 245 247 247 248 250 250 249 250 249 249 249 249 248 247 247 246 246
237 236 237 236 236 234 233 233 234 235 236 237 237 239 240 241 242 239 241 242 239 238 239 238 238 240 240 241 241 241 241 241 243 244 245 246 247 248 248 248 250 253 250 250 249 249 248 248 247 246 246 245 245 244
237 236 237 236 235 237 235 235 234 235 237 233 237 238 238 239 237 237 240 242 238 239 238 238 240 238 240 240 241 241 241 242 243 243 244 247 247 249 249 249 249 249 249 249 250 251 249 247 247 246 246 245 245 243
237 235 236 234 236 237 237 236 235 233 234 237 237 240 240 240 241 238 238 238 240 239 239 238 238 239 240 240 242 243 242 244 245 248 248 250 250 249 248 248 248 248 248 247 247 247 249 248 245 243 243 241 240 242
235 234 236 235 237 236 236 235 233 234 235 235 234 237 237 238 241 237 241 239 238 237 240 241 244 246 246 246 246 246 248 249 250 250 250 250 250 248 248 248 248 247 246 245 245 243 243 241 238 238 239 240 241 242
235 235 237 239 239 237 234 235 236 237 237 238 241 238 240 240 241 244 247 246 243 245 247 247 247 248 250 251 251 251 253 251 250 250 248 249 248 248 247 247 243 240 241 241 239 238 238 238 240 241 242 242 242 243
235 236 236 237 239 241 239 239 240 241 242 242 242 241 241 242 245 247 245 246 246 247 248 249 250 249 250 250 250 251 252 250 249 253 254 252 250 248 242 240 238 238 239 240 241 241 241 241 242 242 242 243 244 244
Wind_Speed
25 25 25 21 22 21 22 21 20 21 21 22 21 22 23 22 20 13 7 16 9 5 4 9 9 7 3 3 6 4 5 0 2 4 5 5 4 6 3 5 8 9 9 6 4 5 12 8 3 8 5 3 6 4
27 26 26 25 26 24 22 22 22 21 21 22 22 22 21 22 19 16 4 10 12 5 5 6 11 12 10 10 8 0 4 5 5 4 1 3 0 1 5 4 3 2 8 8 11 9 7 3 4 4 6 4 5 5
27 28 28 26 26 25 26 26 23 22 22 21 22 23 23 22 20 18 4 3 7 8 3 3 13 6 6 8 8 7 2 4 4 5 5 3 4 4 4 7 1 5 3 4 5 9 7 7 5 4 6 7 6 6
28 28 29 27 25 24 24 23 25 23 22 23 23 23 20 22 21 18 7 4 5 2 7 6 2 13 9 9 8 6 8 5 5 3 3 4 3 2 3 4 5 7 3 3 4 6 3 5 5 6 6 4 6 6
25 26 28 27 26 24 24 24 22 22 21 23 24 23 23 24 23 14 6 5 7 3 3 3 2 6 10 13 11 9 9 7 3 3 3 3 2 3 2 2 4 5 5 3 5 5 3 7 10 6 8 9 9 7
23 25 26 27 27 24 24 25 23 23 22 22 22 21 23 22 20 5 4 7 11 8 3 4 0 5 6 13 12 12 9 4 4 5 3 3 3 4 3 5 12 7 5 8 13 9 7 12 11 8 13 10 8 6
20 20 23 24 27 25 24 24 23 23 25 26 23 23 23 24 11 9 4 1 19 11 4 4 3 2 12 9 3 3 2 3 5 3 2 4 3 5 3 11 23 4 8 7 9 3 12 6 7 7 5 6 5 3
20 17 17 22 26 26 25 26 25 25 25 26 27 25 26 24 21 16 13 12 8 6 4 6 3 5 11 6 5 3 4 3 1 4 2 4 1 2 5 9 12 3 4 7 2 3 4 7 2 4 6 6 6 5
30 24 18 16 19 23 26 26 27 28 26 25 26 27 13 12 9 11 15 22 7 6 4 5 9 6 5 4 3 3 3 3 3 4 5 6 3 7 12 9 5 4 3 3 8 6 2 4 5 6 7 6 5 7
37 22 21 20 20 21 24 27 26 24 27 28 18 9 8 7 15 14 9 10 10 7 4 4 4 7 11 4 3 5 3 4 5 4 5 4 5 10 2 4 6 5 4 4 4 5 5 1 5 8 6 6 6 7
20 2 13 15 18 21 23 25 26 25 26 9 8 8 4 19 9 8 10 12 7 5 5 5 9 14 2 8 5 2 5 5 5 5 8 3 5 9 7 7 6 6 4 3 1 4 4 6 8 8 7 6 7 6
32 28 24 20 11 20 20 23 25 15 5 9 6 6 5 5 8 11 9 8 7 8 5 14 9 9 4 5 4 4 4 4 6 4 6 4 6 4 4 4 4 4 4 3 2 4 5 7 6 6 6 6 6 7
26 28 28 28 26 21 25 4 14 20 18 4 4 4 3 6 5 6 7 2 6 5 5 13 11 6 3 4 3 4 5 5 4 3 6 7 4 4 3 2 2 3 2 1 3 3 4 5 5 3 6 5 7 7
19 24 29 27 28 24 22 22 15 11 7 4 4 4 3 3 2 4 4 5 3 9 17 13 7 5 4 4 4 6 2 5 4 5 8 4 7 7 4 2 3 1 3 3 3 3 3 4 4 4 5 5 5 6
23 15 23 28 27 25 19 19 19 9 7 6 4 1 3 2 2 0 3 0 4 8 13 7 6 5 4 6 4 5 3 4 6 8 5 3 5 6 5 3 3 1 3 5 3 3 4 3 3 4 5 5 4 4
21 11 13 31 28 21 19 10 9 5 5 5 10 2 5 1 1 4 5 3 6 3 2 4 5 5 3 5 5 6 10 8 6 5 3 6 6 4 4 3 2 3 3 5 3 2 2 1 1 3 4 4 4 4
12 4 25 28 23 11 23 6 5 10 6 5 4 2 3 3 3 3 4 5 7 1 4 4 6 4 5 4 2 5 7 4 3 2 2 4 6 5 4 3 3 2 2 1 2 2 2 2 3 4 4 4 4 3
2 7 24 26 14 7 6 8 6 7 9 5 4 3 2 3 2 2 4 5 5 3 2 3 5 4 6 6 4 3 3 1 2 3 2 2 3 3 3 3 3 3 2 1 1 1 3 3 3 1 1 1 2 3
5 8 20 22 9 7 6 8 6 7 5 2 2 3 2 2 2 4 4 5 3 1 1 2 6 3 3 1 2 2 2 3 4 3 2 3 5 4 3 2 2 2 3 2 2 2 1 2 0 1 2 2 2 2
10 11 19 15 11 6 8 5 4 6 3 0 3 3 2 3 4 3 5 6 4 3 10 8 3 1 1 1 1 3 2 2 6 4 1 1 2 4 3 3 3 3 3 4 3 2 3 3 3 3 3 3 3 3
10 10 15 8 5 8 6 3 5 3 2 3 3 1 2 2 4 7 6 8 7 6 4 1 1 1 1 1 1 1 3 2 2 4 5 3 3 3 2 1 2 3 3 2 3 2 3 1 1 2 2 3 2 2
3 13 4 9 7 6 6 5 3 0 4 0 2 3 4 4 4 4 4 7 4 1 1 1 1 1 2 2 2 1 2 1 2 2 5 6 3 2 2 1 3 2 2 2 3 3 2 1 0 1 1 1 2 2
9 7 7 9 8 9 2 3 6 6 4 3 2 4 4 3 3 3 5 2 1 1 2 2 1 1 2 2 3 4 4 3 2 1 3 3 3 3 3 2 2 4 2 2 2 3 2 1 2 2 1 2 1 1
12 11 10 7 8 2 3 6 4 4 3 4 3 3 3 3 5 4 3 2 3 2 2 2 2 3 4 5 4 2 3 1 2 1 2 5 4 2 1 2 1 1 3 3 2 2 1 1 1 1 1 0 1 1
11 13 8 9 5 7 8 6 6 5 4 3 3 2 2 3 2 3 0 3 2 2 2 2 2 2 3 1 2 4 4 3 3 3 2 3 3 3 2 1 1 3 1 3 2 2 2 2 1 1 1 1 2 4
13 5 6 3 5 5 2 4 4 1 2 3 0 3 3 3 3 2 3 3 2 3 3 3 4 1 1 3 3 2 3 1 4 3 3 3 4 4 4 3 2 3 3 3 3 3 3 3 2 3 3 4 4 5
8 5 4 0 2 2 4 2 1 4 4 2 2 3 2 3 2 4 3 3 2 3 4 3 4 3 3 3 2 2 2 1 3 3 2 3 2 3 3 3 4 2 4 4 3 3 3 3 3 3 4 3 4 5
3 2 4 5 4 2 4 3 4 2 2 2 2 3 3 4 4 4 4 3 3 1 1 0 2 2 2 3 2 2 1 0 1 2 2 1 0 1 2 1 1 5 3 2 3 3 3 3 4 4 4 6 7 4
4 3 3 5 4 5 2 3 2 3 3 3 3 2 4 4 4 2 3 2 2 3 2 1 3 1 2 2 1 1 2 3 4 3 2 2 2 3 4 3 2 2 2 2 6 6 7 6 6 6 7 6 6 5
3 1 4 2 4 2 4 4 3 4 2 3 2 3 3 4 4 2 3 2 2 3 4 4 3 4 3 3 2 3 3 4 3 3 2 2 1 1 2 3 3 3 3 3 4 4 6 4 5 4 4 4 4 5
0 3 4 2 2 4 4 2 2 1 1 1 1 3 4 4 5 3 4 4 3 2 2 2 3 3 3 3 3 2 3 3 6 7 5 3 3 3 3 3 3 3 3 3 4 3 3 2 3 5 7 9 10 9
3 2 4 2 2 4 4 3 1 0 2 1 2 1 4 3 3 3 3 5 3 4 6 5 4 5 6 5 3 3 5 2 3 4 6 4 4 4 3 3 2 2 3 4 3 3 4 7 6 7 9 12 13 13
2 2 2 2 3 3 3 3 2 3 1 1 1 1 1 2 5 3 2 3 4 5 6 6 5 3 4 4 4 3 5 3 5 7 7 8 8 6 3 3 3 4 5 5 6 6 8 9 10 12 13 14 16 16
Wind_Direction
271 261 256 253 258 252 251 253 249 245 244 244 245 245 240 246 246 236 210 185 191 218 220 194 168 153 85 136 142 185 96 188 57 148 137 201 147 221 130 184 176 160 158 194 194 209 244 227 81 173 196 210 180 217
270 262 258 252 248 241 249 253 248 246 254 248 246 243 244 240 242 225 261 180 194 198 226 196 206 193 174 173 134 195 161 163 168 116 205 99 117 63 159 225 184 228 185 179 182 202 222 155 145 186 162 176 242 212
276 265 260 253 244 243 246 249 244 246 249 243 242 242 240 244 235 234 212 174 207 191 209 156 202 186 160 160 161 128 319 161 171 170 152 180 187 114 178 241 128 260 166 194 78 258 233 234 268 178 193 216 246 235
281 263 255 247 246 246 244 241 241 239 239 240 240 238 235 244 241 243 225 177 205 169 222 224 152 198 171 152 160 149 143 111 108 73 105 135 153 158 215 220 176 203 118 185 272 289 307 303 292 303 322 266 273 256
293 265 251 246 238 240 236 236 240 244 234 234 235 235 233 232 235 236 240 181 187 220 205 194 77 217 176 173 153 135 128 118 116 76 111 200 202 96 314 56 258 177 185 163 234 234 187 266 281 297 290 279 257 268
297 276 250 240 236 234 231 234 232 234 232 232 231 240 235 226 226 215 240 200 192 173 228 163 132 148 148 163 161 154 145 118 119 134 191 224 219 123 158 214 250 253 187 219 257 279 259 267 273 263 265 248 255 255
307 297 258 232 230 230 232 237 235 235 228 229 231 235 226 231 219 207 186 169 190 159 221 125 159 275 153 126 111 106 102 131 126 151 163 151 183 160 143 244 256 274 255 267 272 2 283 261 287 345 345 349 354 343
308 298 285 238 227 227 230 235 238 237 237 234 229 230 234 237 237 227 226 223 195 183 172 156 149 155 156 147 152 127 145 119 131 157 86 149 123 121 236 239 245 148 215 259 315 21 282 295 319 16 356 354 353 346
324 295 263 250 235 232 237 240 238 237 236 232 229 231 236 230 225 225 207 218 213 239 189 158 153 160 138 93 110 92 122 150 124 165 185 134 202 209 223 219 223 147 174 297 319 290 324 7 3 2 348 353 328 326
306 261 242 234 238 241 242 243 244 245 240 235 232 224 213 198 183 166 186 197 198 205 203 177 132 147 156 124 118 114 129 154 174 214 124 181 237 240 132 93 98 97 71 30 354 318 348 299 342 325 320 321 325 319
12 61 224 239 248 248 247 245 243 233 234 182 184 187 211 157 161 181 220 180 163 184 206 149 152 133 295 132 130 174 149 157 161 222 153 192 257 217 128 111 90 80 71 62 1 295 290 291 303 311 310 310 307 311
16 26 53 32 314 254 252 253 243 226 198 183 142 109 131 190 180 213 184 147 170 181 200 148 140 118 120 93 111 145 147 122 191 143 114 228 233 114 121 117 86 64 52 1 311 308 310 305 309 298 293 294 291 290
13 17 25 24 27 29 7 173 193 158 126 128 112 136 163 212 154 161 149 208 125 169 190 138 125 113 102 100 123 135 135 194 128 116 203 224 133 137 152 135 108 56 38 359 316 299 305 298 312 274 288 282 286 286
359 15 14 19 16 11 11 25 36 118 90 84 112 167 226 80 174 162 179 159 187 160 147 135 109 122 116 125 129 123 169 98 72 155 225 222 179 156 166 137 108 344 327 306 286 296 302 304 298 293 287 287 299 310
344 5 6 4 4 8 7 21 33 42 57 72 62 173 63 228 284 151 265 258 319 135 135 126 71 91 105 122 120 114 108 168 189 214 217 168 147 140 157 160 127 311 305 288 277 296 297 307 316 309 309 320 330 329
351 7 354 349 350 11 7 56 25 63 72 70 30 49 343 160 355 29 346 47 349 24 130 64 105 96 118 130 121 179 134 198 220 203 172 128 134 159 165 154 172 217 228 257 277 258 272 283 230 258 328 1 359 16
20 11 333 342 352 12 25 65 51 47 64 54 60 49 326 56 49 331 335 326 322 319 103 109 96 147 96 83 108 178 193 213 165 129 83 119 157 174 166 149 189 220 228 282 312 325 279 296 87 61 30 342 5 16
14 321 343 345 0 37 28 32 71 55 62 30 52 359 46 8 339 4 318 332 353 44 32 122 135 117 136 143 233 161 131 20 63 107 124 131 129 128 141 162 215 207 184 119 98 21 28 50 64 172 186 355 31 27
331 360 354 358 32 79 60 20 45 81 43 9 18 356 40 81 65 334 323 334 335 359 78 32 72 95 126 90 138 205 156 166 147 151 157 165 141 153 170 200 199 120 102 112 102 109 105 79 130 356 41 37 54 34
349 10 7 28 31 67 57 15 42 77 76 321 19 2 26 0 326 328 351 11 19 25 39 36 62 143 88 227 235 140 156 141 124 101 43 278 181 133 139 162 168 145 88 49 38 87 47 22 2 10 38 45 65 43
16 348 5 47 58 60 84 19 50 97 129 87 289 14 60 22 14 9 360 346 52 33 70 40 96 252 330 296 337 88 47 58 137 157 161 160 227 146 132 60 93 84 107 109 105 34 66 115 302 13 57 67 57 52
324 4 41 14 72 51 69 9 104 11 64 96 32 27 32 26 9 10 317 42 52 26 82 105 282 353 23 9 319 44 212 86 7 45 61 101 112 100 92 168 97 100 101 163 154 159 195 250 95 68 79 92 87 72
12 24 44 15 73 47 309 14 65 355 56 33 11 47 30 6 338 314 74 71 180 253 202 163 207 185 135 308 33 15 22 66 85 141 109 99 89 86 90 66 123 130 131 283 175 156 165 122 77 89 65 60 32 41
31 44 33 36 30 57 356 25 24 49 54 44 42 51 7 322 324 42 77 286 263 321 28 340 58 30 7 30 40 312 292 140 176 43 81 107 95 15 105 137 127 168 185 172 138 137 148 149 118 107 79 44 356 313
66 357 25 5 4 37 36 19 3 45 68 15 74 19 339 345 48 41 117 276 314 312 302 339 48 82 131 302 297 260 264 169 154 140 290 130 117 65 37 13 268 229 169 116 174 178 190 184 190 198 258 276 288 292
66 315 53 335 348 56 338 65 36 86 88 68 296 272 18 75 66 243 257 231 232 207 212 182 170 109 305 197 188 240 244 214 115 99 271 168 161 146 165 165 193 268 195 187 168 191 206 203 214 244 262 267 278 287
63 344 325 33 135 81 43 16 71 81 67 65 294 5 55 85 265 249 263 224 186 226 195 173 152 160 207 247 262 267 260 182 167 194 206 159 160 162 158 179 202 193 152 172 185 199 229 231 246 254 269 274 259 267
141 51 68 315 34 29 104 45 43 51 301 294 61 31 122 176 242 243 212 232 185 171 117 227 189 179 198 223 201 140 15 18 40 40 26 2 237 201 185 163 171 155 143 166 179 187 212 239 256 261 261 263 274 245
40 320 72 21 16 37 68 127 224 248 207 100 118 273 260 239 225 213 251 199 140 93 67 5 304 4 360 351 11 201 157 146 134 139 188 240 204 231 184 178 174 151 180 196 237 221 218 225 232 235 245 253 264 268
319 74 81 47 71 4 259 165 218 248 224 187 193 322 315 285 250 181 127 108 135 192 208 196 203 147 199 175 248 276 236 201 198 203 210 234 240 130 155 183 195 193 185 206 244 268 292 323 326 328 308 292 269 271
114 51 62 66 161 246 232 243 329 8 358 275 241 158 246 282 304 243 186 184 172 149 129 225 229 216 210 220 206 213 277 211 214 225 233 235 219 214 207 203 205 196 193 213 233 244 260 264 248 269 278 281 282 275
22 88 116 64 300 295 25 40 263 241 293 19 279 216 316 353 291 269 198 151 146 203 220 207 211 235 208 224 223 226 247 209 205 216 220 223 224 224 219 215 182 166 203 224 217 226 233 248 264 264 271 275 273 271
20 38 63 70 8 7 349 355 11 322 266 290 291 333 296 289 261 286 311 214 189 200 206 213 222 213 218 214 220 233 236 229 229 242 234 235 234 236 218 207 188 193 212 230 238 234 245 251 261 264 264 263 266 269